This is the latest recevied weather packets stored in our database for station/object S50ME-11. If no packets are shown the sender has not sent any weather packets the latest 10 day(s).
| Time | Temp. | Humidity | Pressure | Rain* | Wind** | Luminosity | Snow |
|---|---|---|---|---|---|---|---|
| 1777751145 | 17.78° C | 38% | 1021.7 hPa | - | - | - | - |
| 1777751142 | 17.78° C | 38% | 1021.7 hPa | - | - | - | - |
| 1777750245 | 18.33° C | 37% | 1021.6 hPa | - | - | - | - |
| 1777750242 | 18.33° C | 37% | 1021.6 hPa | - | - | - | - |
| 1777749345 | 19.44° C | 37% | 1021.9 hPa | - | - | - | - |
| 1777749341 | 19.44° C | 37% | 1021.9 hPa | - | - | - | - |
| 1777748445 | 20.56° C | 37% | 1021.7 hPa | - | - | - | - |
| 1777748441 | 20.56° C | 37% | 1021.7 hPa | - | - | - | - |
| 1777747541 | 21.11° C | 36% | 1021.7 hPa | - | - | - | - |
| 1777746645 | 21.67° C | 36% | 1021.6 hPa | - | - | - | - |
| 1777746640 | 21.67° C | 36% | 1021.6 hPa | - | - | - | - |
| 1777745746 | 22.78° C | 36% | 1022.8 hPa | - | - | - | - |
| 1777745740 | 22.78° C | 36% | 1022.8 hPa | - | - | - | - |
| 1777744854 | 23.33° C | 35% | 1021.3 hPa | - | - | - | - |
| 1777744850 | 23.33° C | 35% | 1021.3 hPa | - | - | - | - |
| 1777743999 | 23.89° C | 35% | 1021.4 hPa | - | - | - | - |
| 1777743953 | 23.89° C | 35% | 1021.4 hPa | - | - | - | - |
| 1777743950 | 23.89° C | 35% | 1021.4 hPa | - | - | - | - |
| 1777743054 | 24.44° C | 35% | 1021.4 hPa | - | - | - | - |
| 1777743050 | 24.44° C | 35% | 1021.4 hPa | - | - | - | - |
| 1777742153 | 25° C | 35% | 1021.5 hPa | - | - | - | - |
| 1777742149 | 25° C | 35% | 1021.5 hPa | - | - | - | - |
| 1777741251 | 25.56° C | 35% | 1021.4 hPa | - | - | - | - |
| 1777741249 | 25.56° C | 35% | 1021.4 hPa | - | - | - | - |
| 1777740351 | 25.56° C | 35% | 1021.3 hPa | - | - | - | - |
* Rain since midnight (hover to see other rain measurements)
** Current wind speed in m/s (hover to see current wind gust speed)